Location: Kam�li
(14.6864°N, 3.1482°W)
Time: 23:45:51
(UTC+00:00)

SL-16 R/B - Pass Details

Date: 29 October 2020
Orbit: 842 x 846 km, 71.0° (Epoch: 03 December)

Event Time Altitude Azimuth Distance (km) Brightness Sun altitude
Rises 18:30:54 0° 166° (SSE) 3,386 5.3 -11.6°
Reaches altitude 10° 18:33:54 10° 151° (SSE) 2,452 4.4 -12.4°
Maximum altitude 18:38:04 21° 103° (ESE) 1,781 3.4 -13.3°
Enters shadow 18:39:36 19° 81° (E) 1,886 3.4 -13.7°
